GTI8002 KIAH-LEZG

Flight info

Callsign GTI8002
Flight time N/A
Altitude 35000
Route STRYA8 DPATY DCT MEI DCT SPA/N0492F370 DCT RDU DCT ORF AR9 CROAK/M085F370 DCT 37N070W DCT SOORY DCT 42N050W/M085F390 44N040W 46N030W 45N020W 44N015W DCT MUDOS/N0491F390 DCT STG DCT SUSOS/N0494F400 N725 DGO/N0450F240 DCT ALEPO
Aircraft B748/H-SDE3FGHIM1M2RWXY/LB1

Departure

Time N/A
Airport George Bush Intercontinental Airport (KIAH)

Arrival

Time 2026-05-06 13:53
Airport Zaragoza Airport (LEZG)
Time Latitude Longitude Altitude Speed Heading
2026-05-06 11:26 45.73832 -26.33084 39267 ft 523 kts 95°
2026-05-06 11:27 45.73380 -26.27903 39262 ft 523 kts 96°
2026-05-06 11:27 45.72478 -26.17581 39275 ft 522 kts 94°
2026-05-06 11:28 45.71539 -26.07323 39271 ft 522 kts 94°
2026-05-06 11:28 45.70620 -25.97002 39281 ft 521 kts 95°
2026-05-06 11:29 45.69668 -25.86696 39263 ft 521 kts 95°
2026-05-06 11:29 45.68727 -25.76464 39263 ft 521 kts 94°
2026-05-06 11:30 45.67778 -25.66181 39272 ft 520 kts 95°
2026-05-06 11:30 45.66792 -25.55970 39272 ft 521 kts 95°
2026-05-06 11:31 45.65832 -25.45676 39272 ft 521 kts 94°
2026-05-06 11:31 45.64837 -25.35442 39277 ft 521 kts 94°
2026-05-06 11:32 45.63845 -25.25157 39277 ft 520 kts 94°
2026-05-06 11:32 45.62839 -25.14960 39273 ft 520 kts 94°
2026-05-06 11:33 45.61840 -25.04702 39261 ft 520 kts 94°
2026-05-06 11:33 45.60818 -24.94524 39249 ft 520 kts 95°
2026-05-06 11:34 45.59791 -24.84296 39248 ft 519 kts 94°
2026-05-06 11:34 45.58741 -24.74072 39242 ft 519 kts 94°
2026-05-06 11:35 45.57713 -24.63949 39234 ft 517 kts 94°
2026-05-06 11:35 45.56660 -24.53800 39235 ft 517 kts 94°
2026-05-06 11:36 45.55594 -24.43644 39236 ft 516 kts 94°
2026-05-06 11:36 45.54533 -24.33508 39240 ft 516 kts 94°
2026-05-06 11:37 45.53439 -24.23395 39237 ft 515 kts 94°
2026-05-06 11:37 45.52397 -24.13340 39238 ft 514 kts 94°
2026-05-06 11:38 45.51292 -24.03328 39225 ft 514 kts 93°
2026-05-06 11:38 45.50195 -23.93242 39229 ft 515 kts 94°
2026-05-06 11:39 45.49093 -23.83141 39235 ft 515 kts 94°
2026-05-06 11:39 45.47977 -23.73125 39237 ft 514 kts 94°
2026-05-06 11:40 45.46856 -23.63046 39235 ft 515 kts 94°
2026-05-06 11:40 45.45711 -23.52941 39239 ft 517 kts 95°
2026-05-06 11:41 45.44561 -23.42784 39230 ft 517 kts 95°
2026-05-06 11:41 45.43407 -23.32739 39223 ft 517 kts 95°
2026-05-06 11:42 45.42237 -23.22606 39227 ft 519 kts 95°
2026-05-06 11:42 45.41066 -23.12509 39221 ft 519 kts 95°
2026-05-06 11:43 45.39869 -23.02383 39211 ft 518 kts 95°
2026-05-06 11:43 45.38682 -22.92280 39214 ft 518 kts 95°
2026-05-06 11:44 45.36872 -22.77131 39212 ft 518 kts 95°
2026-05-06 11:44 45.35657 -22.67069 39218 ft 520 kts 95°
2026-05-06 11:45 45.34427 -22.56941 39214 ft 518 kts 95°
2026-05-06 11:45 45.33189 -22.46850 39209 ft 519 kts 95°
2026-05-06 11:46 45.31940 -22.36720 39218 ft 520 kts 95°
2026-05-06 11:46 45.30685 -22.26643 39203 ft 520 kts 95°
2026-05-06 11:47 45.29415 -22.16511 39211 ft 521 kts 95°
2026-05-06 11:47 45.28141 -22.06380 39211 ft 520 kts 96°
2026-05-06 11:48 45.26855 -21.96269 39208 ft 521 kts 95°
2026-05-06 11:48 45.25562 -21.86159 39206 ft 520 kts 96°
2026-05-06 11:49 45.24257 -21.76060 39211 ft 520 kts 96°
2026-05-06 11:49 45.22943 -21.65983 39205 ft 518 kts 96°
2026-05-06 11:50 45.21642 -21.55966 39208 ft 518 kts 96°
2026-05-06 11:50 45.20303 -21.45914 39206 ft 519 kts 96°
2026-05-06 11:51 45.18976 -21.35868 39203 ft 518 kts 96°
2026-05-06 11:51 45.17630 -21.25832 39181 ft 518 kts 97°
2026-05-06 11:52 45.16278 -21.15793 39171 ft 518 kts 97°
2026-05-06 11:52 45.14921 -21.05777 39167 ft 517 kts 97°
2026-05-06 11:53 45.13548 -20.95760 39165 ft 517 kts 97°
2026-05-06 11:53 45.12189 -20.85817 39166 ft 518 kts 97°
2026-05-06 11:54 45.10796 -20.75791 39170 ft 518 kts 97°
2026-05-06 11:54 45.09399 -20.65787 39173 ft 518 kts 97°
2026-05-06 11:55 45.08003 -20.55784 39166 ft 518 kts 98°
2026-05-06 11:55 45.06587 -20.45791 39169 ft 518 kts 97°
2026-05-06 11:56 45.05173 -20.35810 39162 ft 517 kts 97°
2026-05-06 11:56 45.03738 -20.25822 39161 ft 518 kts 97°
2026-05-06 11:57 45.02304 -20.15855 39154 ft 517 kts 98°
2026-05-06 11:57 45.00856 -20.05886 39154 ft 517 kts 98°
2026-05-06 11:58 44.99285 -19.96033 39150 ft 519 kts 100°
2026-05-06 11:58 44.97578 -19.86155 39158 ft 518 kts 101°
2026-05-06 11:59 44.95815 -19.76268 39152 ft 519 kts 101°
2026-05-06 11:59 44.94063 -19.66363 39149 ft 519 kts 101°
2026-05-06 12:00 44.92299 -19.56500 39145 ft 518 kts 101°
2026-05-06 12:00 44.90530 -19.46704 39146 ft 518 kts 101°
2026-05-06 12:01 44.88747 -19.36833 39141 ft 518 kts 101°
2026-05-06 12:01 44.86966 -19.26989 39140 ft 518 kts 101°
2026-05-06 12:02 44.85165 -19.17167 39146 ft 518 kts 101°
2026-05-06 12:02 44.83358 -19.07319 39146 ft 518 kts 101°
2026-05-06 12:03 44.81544 -18.97490 39147 ft 518 kts 102°
2026-05-06 12:03 44.79727 -18.87719 39141 ft 519 kts 102°
2026-05-06 12:04 44.77900 -18.77880 39132 ft 519 kts 102°
2026-05-06 12:04 44.76051 -18.68059 39141 ft 519 kts 102°
2026-05-06 12:05 44.74198 -18.58235 39135 ft 520 kts 102°
2026-05-06 12:05 44.72344 -18.48397 39132 ft 520 kts 102°
2026-05-06 12:06 44.70463 -18.38582 39131 ft 520 kts 102°
2026-05-06 12:06 44.68600 -18.28841 39123 ft 519 kts 102°
2026-05-06 12:07 44.66722 -18.19043 39125 ft 520 kts 102°
2026-05-06 12:07 44.64817 -18.09236 39123 ft 521 kts 102°
2026-05-06 12:08 44.62909 -17.99388 39127 ft 523 kts 103°
2026-05-06 12:08 44.60979 -17.89511 39127 ft 523 kts 103°
2026-05-06 12:09 44.59050 -17.79712 39131 ft 523 kts 103°
2026-05-06 12:09 44.57109 -17.69877 39127 ft 522 kts 103°
2026-05-06 12:10 44.55498 -17.61706 39126 ft 522 kts 103°
2026-05-06 12:10 44.53217 -17.50281 39127 ft 523 kts 103°
2026-05-06 12:11 44.51568 -17.42063 39125 ft 522 kts 103°
2026-05-06 12:11 44.49613 -17.32326 39121 ft 523 kts 103°
2026-05-06 12:12 44.47622 -17.22526 39119 ft 522 kts 104°
2026-05-06 12:12 44.45657 -17.12729 39117 ft 521 kts 103°
2026-05-06 12:13 44.43646 -17.02999 39115 ft 520 kts 104°
2026-05-06 12:13 44.41667 -16.93340 39117 ft 519 kts 104°
2026-05-06 12:14 44.39671 -16.83621 39117 ft 520 kts 104°
2026-05-06 12:14 44.37651 -16.73902 39117 ft 519 kts 104°
2026-05-06 12:15 44.35638 -16.64203 39116 ft 519 kts 104°
2026-05-06 12:15 44.33618 -16.54555 39116 ft 518 kts 104°
2026-05-06 12:16 44.31597 -16.44929 39109 ft 519 kts 105°
2026-05-06 12:16 44.29557 -16.35259 39110 ft 519 kts 105°
2026-05-06 12:17 44.27510 -16.25611 39092 ft 520 kts 105°
2026-05-06 12:17 44.25444 -16.15909 39079 ft 519 kts 105°
2026-05-06 12:18 44.23396 -16.06344 39065 ft 516 kts 105°
2026-05-06 12:18 44.21331 -15.96732 39064 ft 517 kts 105°
2026-05-06 12:19 44.19250 -15.87103 39065 ft 518 kts 105°
2026-05-06 12:19 44.17172 -15.77536 39068 ft 519 kts 105°
2026-05-06 12:20 44.15077 -15.67889 39070 ft 520 kts 105°
2026-05-06 12:20 44.12957 -15.58245 39074 ft 519 kts 105°
2026-05-06 12:21 44.10862 -15.48705 39069 ft 517 kts 105°
2026-05-06 12:21 44.08744 -15.39132 39065 ft 516 kts 106°
2026-05-06 12:22 44.06622 -15.29558 39066 ft 517 kts 106°
2026-05-06 12:22 44.04502 -15.20053 39067 ft 517 kts 106°
2026-05-06 12:23 44.02362 -15.10494 39068 ft 516 kts 106°
2026-05-06 12:23 44.00227 -15.01017 39068 ft 516 kts 106°
2026-05-06 12:24 43.97983 -14.91510 39066 ft 517 kts 108°
2026-05-06 12:24 43.95671 -14.82035 39070 ft 518 kts 107°
2026-05-06 12:25 43.93410 -14.72577 39075 ft 518 kts 108°
2026-05-06 12:25 43.91090 -14.63106 39070 ft 517 kts 107°
2026-05-06 12:26 43.88818 -14.53710 39064 ft 515 kts 108°
2026-05-06 12:26 43.86505 -14.44309 39060 ft 515 kts 108°
2026-05-06 12:27 43.84206 -14.34905 39063 ft 515 kts 108°
2026-05-06 12:27 43.81874 -14.25494 39063 ft 515 kts 108°
2026-05-06 12:28 43.79565 -14.16146 39065 ft 515 kts 108°
2026-05-06 12:28 43.77228 -14.06764 39063 ft 514 kts 108°
2026-05-06 12:29 43.74907 -13.97476 39063 ft 513 kts 108°
2026-05-06 12:29 43.72569 -13.88130 39062 ft 513 kts 108°
2026-05-06 12:30 43.70211 -13.78785 39064 ft 514 kts 108°
2026-05-06 12:30 43.67847 -13.69425 39068 ft 515 kts 108°
2026-05-06 12:31 43.65488 -13.60135 39071 ft 516 kts 108°
2026-05-06 12:31 43.63097 -13.50739 39069 ft 517 kts 108°
2026-05-06 12:32 43.60710 -13.41428 39070 ft 517 kts 108°
2026-05-06 12:32 43.58308 -13.32052 39068 ft 515 kts 109°
2026-05-06 12:33 43.55907 -13.22754 39063 ft 514 kts 109°
2026-05-06 12:33 43.53517 -13.13521 39061 ft 514 kts 109°
2026-05-06 12:34 43.51101 -13.04222 39061 ft 515 kts 109°
2026-05-06 12:34 43.49413 -12.94659 39058 ft 514 kts 97°
2026-05-06 12:35 43.48436 -12.84948 39067 ft 514 kts 97°
2026-05-06 12:35 43.47382 -12.75230 39066 ft 515 kts 98°
2026-05-06 12:36 43.46353 -12.65481 39063 ft 512 kts 98°
2026-05-06 12:36 43.45295 -12.55764 39060 ft 512 kts 98°
2026-05-06 12:37 43.44247 -12.46081 39058 ft 512 kts 98°
2026-05-06 12:37 43.43186 -12.36435 39047 ft 512 kts 98°
2026-05-06 12:38 43.42113 -12.26714 39045 ft 512 kts 98°
2026-05-06 12:38 43.41036 -12.17047 39043 ft 512 kts 98°
2026-05-06 12:39 43.39954 -12.07413 39043 ft 511 kts 98°
2026-05-06 12:39 43.38859 -11.97747 39040 ft 510 kts 98°
2026-05-06 12:40 43.37756 -11.88092 39042 ft 510 kts 99°
2026-05-06 12:40 43.36655 -11.78515 39041 ft 509 kts 99°
2026-05-06 12:41 43.35545 -11.68891 39039 ft 509 kts 99°
2026-05-06 12:41 43.34426 -11.59331 39044 ft 511 kts 99°
2026-05-06 12:42 43.33293 -11.49676 39047 ft 512 kts 99°
2026-05-06 12:42 43.32146 -11.39986 39045 ft 513 kts 99°
2026-05-06 12:43 43.30988 -11.30306 39046 ft 513 kts 99°
2026-05-06 12:43 43.29837 -11.20711 39046 ft 512 kts 99°
2026-05-06 12:44 43.28671 -11.11096 39045 ft 511 kts 99°
2026-05-06 12:44 43.27494 -11.01457 39043 ft 511 kts 99°
2026-05-06 12:45 43.26315 -10.91845 39041 ft 510 kts 99°
2026-05-06 12:46 43.24536 -10.77507 39048 ft 509 kts 99°
2026-05-06 12:46 43.23337 -10.67915 39047 ft 510 kts 100°
2026-05-06 12:47 43.22135 -10.58372 39050 ft 510 kts 100°
2026-05-06 12:47 43.20918 -10.48781 39050 ft 509 kts 100°
2026-05-06 12:48 43.19695 -10.39212 39049 ft 509 kts 100°
2026-05-06 12:48 43.18473 -10.29710 39050 ft 509 kts 100°
2026-05-06 12:49 43.17233 -10.20142 39048 ft 508 kts 100°
2026-05-06 12:49 43.15994 -10.10648 39047 ft 508 kts 100°
2026-05-06 12:50 43.14743 -10.01112 39046 ft 507 kts 100°
2026-05-06 12:50 43.13494 -9.91639 39047 ft 508 kts 101°
2026-05-06 12:51 43.12225 -9.82108 39050 ft 509 kts 101°
2026-05-06 12:51 43.10944 -9.72556 39051 ft 510 kts 101°
2026-05-06 12:52 43.09659 -9.63026 39055 ft 512 kts 101°
2026-05-06 12:52 43.08363 -9.53462 39056 ft 511 kts 101°
2026-05-06 12:53 43.07064 -9.43950 39055 ft 510 kts 101°
2026-05-06 12:53 43.05750 -9.34394 39055 ft 510 kts 101°
2026-05-06 12:54 43.04430 -9.24845 39054 ft 510 kts 101°
2026-05-06 12:54 43.03099 -9.15301 39056 ft 511 kts 101°
2026-05-06 12:55 43.01759 -9.05734 39055 ft 512 kts 101°
2026-05-06 12:55 43.00419 -8.96242 39053 ft 511 kts 101°
2026-05-06 12:56 42.99067 -8.86701 39048 ft 510 kts 101°
2026-05-06 12:56 42.97938 -8.78788 39047 ft 511 kts 101°
2026-05-06 12:57 42.96566 -8.69237 39051 ft 513 kts 102°
2026-05-06 12:57 42.95182 -8.59667 39055 ft 513 kts 102°
2026-05-06 12:58 42.93795 -8.50119 39053 ft 512 kts 102°
2026-05-06 12:58 42.92552 -8.40554 39075 ft 511 kts 96°
2026-05-06 12:59 42.91984 -8.30933 39050 ft 513 kts 95°
2026-05-06 12:59 42.91371 -8.21207 39056 ft 515 kts 95°
2026-05-06 13:00 42.90758 -8.11500 39052 ft 514 kts 95°
2026-05-06 13:00 42.90141 -8.01776 39054 ft 514 kts 95°
2026-05-06 13:01 42.89508 -7.92050 39052 ft 514 kts 95°
2026-05-06 13:01 42.88878 -7.82384 39053 ft 515 kts 95°
2026-05-06 13:02 42.88226 -7.72636 39051 ft 515 kts 95°
2026-05-06 13:02 42.87571 -7.62883 39047 ft 516 kts 96°
2026-05-06 13:03 42.86910 -7.53186 39042 ft 517 kts 96°
2026-05-06 13:03 42.86235 -7.43411 39041 ft 516 kts 96°
2026-05-06 13:04 42.85557 -7.33738 39040 ft 515 kts 96°
2026-05-06 13:04 42.84874 -7.24020 39037 ft 514 kts 96°
2026-05-06 13:05 42.84181 -7.14391 39033 ft 513 kts 96°
2026-05-06 13:05 42.83478 -7.04660 39035 ft 514 kts 96°
2026-05-06 13:06 42.82768 -6.95011 39039 ft 515 kts 96°
2026-05-06 13:06 42.82046 -6.85270 39038 ft 516 kts 96°
2026-05-06 13:07 42.81318 -6.75559 39032 ft 516 kts 96°
2026-05-06 13:07 42.80579 -6.65839 39030 ft 514 kts 96°
2026-05-06 13:08 42.79833 -6.56141 39031 ft 516 kts 96°
2026-05-06 13:08 42.79078 -6.46382 39028 ft 518 kts 96°
2026-05-06 13:09 42.78315 -6.36691 39029 ft 518 kts 97°
2026-05-06 13:09 42.77543 -6.26940 39027 ft 518 kts 97°
2026-05-06 13:10 42.76756 -6.17175 39020 ft 519 kts 97°
2026-05-06 13:10 42.75969 -6.07430 39013 ft 517 kts 97°
2026-05-06 13:11 42.75173 -5.97749 39011 ft 516 kts 97°
2026-05-06 13:11 42.74367 -5.88001 39007 ft 520 kts 97°
2026-05-06 13:12 42.73546 -5.78216 39010 ft 520 kts 97°
2026-05-06 13:12 42.72721 -5.68439 39009 ft 520 kts 97°
2026-05-06 13:13 42.71890 -5.58729 39012 ft 520 kts 97°
2026-05-06 13:13 42.71047 -5.48963 39012 ft 520 kts 97°
2026-05-06 13:14 42.70196 -5.39205 39001 ft 520 kts 98°
2026-05-06 13:14 42.69345 -5.29441 39011 ft 520 kts 97°
2026-05-06 13:15 42.68481 -5.19692 39002 ft 520 kts 97°
2026-05-06 13:15 42.67611 -5.09949 39007 ft 520 kts 97°
2026-05-06 13:16 42.66729 -5.00177 38999 ft 522 kts 98°
2026-05-06 13:16 42.65834 -4.90365 39015 ft 522 kts 98°
2026-05-06 13:17 42.64929 -4.80625 39015 ft 522 kts 98°
2026-05-06 13:17 42.64012 -4.70801 39015 ft 523 kts 98°
2026-05-06 13:18 42.63087 -4.61005 39018 ft 523 kts 98°
2026-05-06 13:18 42.62158 -4.51242 39027 ft 524 kts 98°
2026-05-06 13:19 42.61214 -4.41416 39026 ft 524 kts 98°
2026-05-06 13:19 42.60262 -4.31611 39009 ft 524 kts 98°
2026-05-06 13:20 42.59302 -4.21800 39026 ft 525 kts 98°
2026-05-06 13:20 42.58331 -4.11953 39023 ft 525 kts 99°
2026-05-06 13:21 42.57349 -4.02128 39025 ft 526 kts 99°
2026-05-06 13:21 42.56358 -3.92291 39020 ft 527 kts 99°
2026-05-06 13:22 42.55366 -3.82493 39027 ft 528 kts 99°
2026-05-06 13:22 42.54355 -3.72650 39024 ft 526 kts 99°
2026-05-06 13:23 42.53344 -3.62840 39021 ft 525 kts 99°
2026-05-06 13:23 42.52323 -3.53059 39013 ft 523 kts 99°
2026-05-06 13:24 42.51294 -3.43265 39015 ft 524 kts 99°
2026-05-06 13:24 42.50264 -3.33524 39011 ft 526 kts 99°
2026-05-06 13:25 42.49211 -3.23718 39021 ft 527 kts 99°
2026-05-06 13:25 42.48155 -3.13879 39015 ft 527 kts 99°
2026-05-06 13:26 42.47086 -3.04059 39021 ft 525 kts 99°
2026-05-06 13:26 42.46021 -2.94326 39014 ft 524 kts 99°
2026-05-06 13:27 42.44938 -2.84552 39017 ft 525 kts 100°
2026-05-06 13:27 42.43782 -2.74765 39015 ft 526 kts 100°
2026-05-06 13:28 42.42647 -2.64969 39021 ft 527 kts 100°
2026-05-06 13:28 42.41484 -2.55152 39010 ft 527 kts 101°
2026-05-06 13:29 42.40329 -2.45408 39011 ft 528 kts 100°
2026-05-06 13:29 42.39154 -2.35587 39011 ft 528 kts 101°
2026-05-06 13:30 42.37965 -2.25745 39002 ft 529 kts 101°
2026-05-06 13:30 42.36779 -2.15961 39002 ft 530 kts 101°
2026-05-06 13:31 42.35578 -2.06161 38997 ft 530 kts 101°
2026-05-06 13:31 42.34426 -1.96307 39005 ft 529 kts 95°
2026-05-06 13:32 42.34307 -1.86317 38964 ft 531 kts 91°
2026-05-06 13:32 42.34301 -1.81368 38708 ft 532 kts 91°
2026-05-06 13:32 42.34267 -1.76374 38460 ft 529 kts 92°
2026-05-06 13:32 42.34219 -1.71408 38202 ft 526 kts 91°
2026-05-06 13:33 42.34186 -1.66461 37959 ft 524 kts 91°
2026-05-06 13:33 42.34160 -1.61536 37712 ft 524 kts 91°
2026-05-06 13:33 42.34121 -1.56658 37479 ft 524 kts 92°
2026-05-06 13:33 42.34074 -1.51697 37230 ft 525 kts 92°
2026-05-06 13:34 42.34030 -1.46761 36723 ft 525 kts 91°
2026-05-06 13:34 42.33990 -1.41888 36078 ft 524 kts 92°
2026-05-06 13:34 42.33943 -1.36949 35382 ft 524 kts 92°
2026-05-06 13:34 42.33893 -1.32018 34677 ft 523 kts 92°
2026-05-06 13:35 42.33841 -1.27094 33942 ft 524 kts 92°
2026-05-06 13:35 42.33788 -1.22147 33172 ft 525 kts 92°
2026-05-06 13:35 42.33732 -1.17213 32378 ft 526 kts 92°
2026-05-06 13:35 42.33676 -1.12317 31562 ft 527 kts 91°
2026-05-06 13:36 42.33617 -1.07347 30723 ft 529 kts 91°
2026-05-06 13:36 42.33551 -1.02351 29829 ft 530 kts 91°
2026-05-06 13:36 42.33486 -0.97369 28968 ft 529 kts 91°
2026-05-06 13:36 42.33421 -0.92397 28074 ft 525 kts 91°
2026-05-06 13:37 42.33353 -0.87517 27209 ft 522 kts 91°
2026-05-06 13:37 42.33285 -0.82627 26337 ft 517 kts 91°
2026-05-06 13:37 42.33184 -0.77784 25469 ft 512 kts 94°
2026-05-06 13:37 42.32587 -0.73067 24589 ft 506 kts 105°
2026-05-06 13:38 42.31350 -0.68635 23713 ft 503 kts 116°
2026-05-06 13:38 42.29581 -0.64696 22848 ft 489 kts 127°
2026-05-06 13:38 42.27347 -0.61297 21991 ft 477 kts 138°
2026-05-06 13:38 42.24798 -0.58593 21281 ft 456 kts 148°
2026-05-06 13:39 42.22014 -0.56552 20452 ft 453 kts 158°
2026-05-06 13:39 42.19048 -0.55189 19635 ft 449 kts 168°
2026-05-06 13:39 42.15969 -0.54504 18813 ft 445 kts 176°
2026-05-06 13:39 42.12906 -0.54083 17982 ft 436 kts 176°
2026-05-06 13:40 42.09932 -0.53682 17182 ft 424 kts 176°
2026-05-06 13:40 42.07073 -0.53303 16550 ft 410 kts 176°
2026-05-06 13:40 42.04297 -0.52929 15975 ft 394 kts 176°
2026-05-06 13:40 42.01595 -0.52565 15326 ft 383 kts 176°
2026-05-06 13:41 41.98970 -0.52211 14683 ft 374 kts 176°
2026-05-06 13:41 41.96415 -0.51868 14050 ft 365 kts 176°
2026-05-06 13:41 41.93940 -0.51597 13431 ft 354 kts 183°
2026-05-06 13:41 41.91567 -0.52156 12837 ft 341 kts 203°
2026-05-06 13:42 41.89422 -0.53424 12227 ft 333 kts 207°
2026-05-06 13:42 41.87348 -0.54755 11642 ft 329 kts 207°
2026-05-06 13:42 41.85279 -0.56060 11054 ft 325 kts 207°
2026-05-06 13:42 41.83234 -0.57307 10619 ft 315 kts 206°
2026-05-06 13:43 41.81307 -0.58478 10470 ft 293 kts 207°
2026-05-06 13:43 41.79542 -0.59575 10356 ft 276 kts 207°
2026-05-06 13:43 41.77812 -0.60644 10020 ft 270 kts 207°
2026-05-06 13:43 41.76126 -0.61688 9575 ft 269 kts 207°
2026-05-06 13:44 41.74445 -0.62725 9141 ft 262 kts 207°
2026-05-06 13:44 41.72805 -0.63734 8722 ft 255 kts 207°
2026-05-06 13:44 41.71215 -0.64717 8316 ft 249 kts 207°
2026-05-06 13:44 41.70183 -0.65353 8057 ft 245 kts 207°
2026-05-06 13:45 41.68659 -0.66286 7698 ft 235 kts 207°
2026-05-06 13:45 41.65748 -0.68079 6973 ft 232 kts 207°
2026-05-06 13:45 41.64275 -0.68985 6591 ft 232 kts 207°
2026-05-06 13:46 41.62337 -0.70173 6107 ft 230 kts 207°
2026-05-06 13:46 41.61351 -0.70777 5861 ft 230 kts 207°
2026-05-06 13:46 41.59927 -0.71651 5501 ft 222 kts 207°
2026-05-06 13:46 41.58519 -0.72514 5139 ft 221 kts 207°
2026-05-06 13:47 41.57156 -0.73347 4859 ft 207 kts 208°
2026-05-06 13:47 41.56000 -0.74283 4760 ft 192 kts 227°
2026-05-06 13:47 41.55363 -0.75837 4719 ft 191 kts 261°
2026-05-06 13:47 41.55511 -0.77586 4658 ft 193 kts 294°
2026-05-06 13:48 41.56125 -0.79114 4446 ft 179 kts 298°
2026-05-06 13:48 41.56729 -0.80537 4219 ft 174 kts 300°
2026-05-06 13:48 41.57328 -0.81915 3985 ft 173 kts 300°
2026-05-06 13:48 41.57929 -0.83302 3772 ft 172 kts 300°
2026-05-06 13:49 41.58526 -0.84687 3532 ft 170 kts 300°
2026-05-06 13:49 41.59117 -0.86040 3315 ft 165 kts 300°
2026-05-06 13:49 41.59693 -0.87373 3131 ft 163 kts 299°
2026-05-06 13:49 41.60224 -0.88596 2935 ft 148 kts 300°
2026-05-06 13:50 41.60740 -0.89773 2736 ft 145 kts 299°
2026-05-06 13:50 41.61243 -0.90929 2552 ft 143 kts 299°
2026-05-06 13:50 41.61740 -0.92085 2385 ft 143 kts 299°
2026-05-06 13:50 41.62238 -0.93240 2172 ft 143 kts 300°
2026-05-06 13:51 41.62751 -0.94389 1976 ft 143 kts 300°
2026-05-06 13:51 41.63243 -0.95523 1771 ft 142 kts 299°
2026-05-06 13:51 41.63734 -0.96673 1576 ft 142 kts 300°
2026-05-06 13:51 41.64236 -0.97821 1370 ft 143 kts 299°
2026-05-06 13:52 41.64732 -0.98970 1192 ft 142 kts 299°
2026-05-06 13:52 41.65225 -1.00103 1017 ft 143 kts 300°
2026-05-06 13:52 41.65725 -1.01248 884 ft 136 kts 300°
2026-05-06 13:52 41.66122 -1.02167 879 ft 88 kts 300°
2026-05-06 13:53 41.66370 -1.02745 879 ft 62 kts 300°
2026-05-06 13:53 41.66520 -1.03090 879 ft 19 kts 300°
2026-05-06 13:53 41.66538 -1.03131 879 ft 2 kts 300°
2026-05-06 13:53 41.66557 -1.03161 879 ft 4 kts 323°
2026-05-06 13:54 41.66586 -1.03162 879 ft 6 kts 11°
2026-05-06 13:54 41.66650 -1.03117 879 ft 14 kts 30°
2026-05-06 13:54 41.66730 -1.03055 879 ft 10 kts 30°
2026-05-06 13:54 41.66758 -1.03011 879 ft 4 kts 80°
2026-05-06 13:55 41.66741 -1.02954 879 ft 11 kts 119°
2026-05-06 13:55 41.66695 -1.02845 879 ft 16 kts 120°
2026-05-06 13:55 41.66629 -1.02693 879 ft 21 kts 120°
2026-05-06 13:55 41.66556 -1.02526 879 ft 21 kts 120°
2026-05-06 13:56 41.66484 -1.02356 879 ft 21 kts 120°
2026-05-06 13:56 41.66411 -1.02188 879 ft 21 kts 120°
2026-05-06 13:56 41.66338 -1.02023 879 ft 21 kts 120°
2026-05-06 13:56 41.66266 -1.01857 879 ft 21 kts 120°
2026-05-06 13:57 41.66194 -1.01690 879 ft 21 kts 120°
2026-05-06 13:57 41.66136 -1.01554 878 ft 13 kts 120°
2026-05-06 13:57 41.66131 -1.01450 878 ft 12 kts 73°
2026-05-06 13:57 41.66156 -1.01336 878 ft 14 kts 73°
2026-05-06 13:58 41.66184 -1.01206 878 ft 16 kts 74°
2026-05-06 13:58 41.66213 -1.01073 879 ft 12 kts 72°
2026-05-06 13:58 41.66265 -1.01000 879 ft 8 kts 20°
2026-05-06 13:58 41.66303 -1.01011 879 ft 4 kts 328°
2026-05-06 13:59 41.66325 -1.01045 879 ft 6 kts 306°
2026-05-06 13:59 41.66361 -1.01110 879 ft 11 kts 306°
2026-05-06 13:59 41.66409 -1.01201 879 ft 12 kts 301°
2026-05-06 13:59 41.66435 -1.01304 879 ft 10 kts 283°
2026-05-06 14:00 41.66461 -1.01391 879 ft 10 kts 298°
2026-05-06 14:00 41.66485 -1.01433 879 ft 3 kts 326°
2026-05-06 14:00 41.66503 -1.01434 879 ft 2 kts 11°
2026-05-06 14:00 41.66531 -1.01411 879 ft 4 kts 31°
2026-05-06 14:01 41.66550 -1.01397 879 ft 0 kts 29°